| time (UTC) | temp C | wind direction | speed KPH | gust KPH | rain 1hr cm | rain 24hr cm | rain mn cm | humidity % | barometer mb |
| 20260505084003 | 12 | 339 | 3.2 | 4.8 | 0.00 | 0.89 | 0.00 | 89 | 1002.8 |
| 20260505083414 | 12 | 319 | 1.6 | 4.8 | 0.00 | 0.89 | 0.00 | 90 | 1003.4 |
| 20260505082403 | 12 | 195 | 0.0 | 3.2 | 0.00 | 0.89 | 0.00 | 90 | 1002.9 |
| 20260505081817 | 12 | 195 | 0.0 | 4.8 | 0.00 | 0.89 | 0.00 | 90 | 1002.9 |
| 20260505080803 | 12 | 195 | 0.0 | 1.6 | 0.00 | 0.89 | 0.00 | 90 | 1002.5 |
| 20260505080004 | 12 | 195 | 0.0 | 4.8 | 0.00 | 0.89 | 0.00 | 90 | 1002.4 |
| 20260505075814 | 12 | 195 | 0.0 | 4.8 | 0.00 | 0.89 | 0.00 | 90 | 1002.3 |
| 20260505075012 | 12 | 195 | 1.6 | 6.4 | 0.00 | 0.89 | 0.00 | 90 | 1002.5 |
| 20260505074003 | 12 | 199 | 3.2 | 6.4 | 0.00 | 0.89 | 0.00 | 89 | 1002.1 |
| 20260505073203 | 12 | 201 | 3.2 | 4.8 | 0.00 | 0.89 | 0.00 | 89 | 1001.9 |
| 20260505072403 | 13 | 201 | 3.2 | 4.8 | 0.00 | 0.89 | 0.00 | 89 | 1001.8 |
| 20260505071812 | 13 | 200 | 3.2 | 6.4 | 0.00 | 0.89 | 0.00 | 89 | 1001.8 |
| 20260505071016 | 13 | 199 | 3.2 | 6.4 | 0.00 | 0.89 | 0.00 | 89 | 1001.9 |
| 20260505070215 | 13 | 198 | 4.8 | 8.0 | 0.00 | 0.89 | 0.00 | 89 | 1001.9 |
| 20260505065603 | 12 | 199 | 4.8 | 9.7 | 0.00 | 0.89 | 0.00 | 89 | 1001.8 |
| 20260505065013 | 12 | 199 | 6.4 | 9.7 | 0.00 | 0.89 | 0.00 | 89 | 1001.8 |
| 20260505064217 | 13 | 195 | 4.8 | 8.0 | 0.00 | 0.89 | 0.00 | 88 | 1001.4 |
| 20260505063203 | 13 | 190 | 3.2 | 6.4 | 0.00 | 0.89 | 0.00 | 88 | 1001.2 |
| 20260505062403 | 13 | 190 | 3.2 | 6.4 | 0.00 | 0.89 | 0.00 | 87 | 1000.9 |
| 20260505061813 | 13 | 195 | 4.8 | 6.4 | 0.00 | 0.89 | 0.00 | 87 | 1000.8 |
| 20260505061017 | 13 | 200 | 4.8 | 8.0 | 0.00 | 0.89 | 0.00 | 86 | 1000.8 |
| 20260505060003 | 13 | 195 | 6.4 | 9.7 | 0.00 | 0.89 | 0.00 | 85 | 1001.1 |
| 20260505055603 | 13 | 193 | 6.4 | 9.7 | 0.00 | 0.89 | 0.00 | 85 | 1000.8 |
| 20260505054803 | 13 | 199 | 6.4 | 9.7 | 0.00 | 0.89 | 0.00 | 84 | 1000.8 |
| 20260505054003 | 13 | 198 | 8.0 | 11.3 | 0.00 | 0.89 | 0.00 | 83 | 1001.1 |
| 20260505053205 | 14 | 200 | 8.0 | 11.3 | 0.00 | 0.89 | 0.00 | 83 | 1001.1 |
| 20260505052403 | 14 | 200 | 9.7 | 12.9 | 0.00 | 0.89 | 0.00 | 83 | 1000.8 |
| 20260505051603 | 14 | 198 | 9.7 | 16.1 | 0.00 | 0.89 | 0.00 | 84 | 1000.9 |
| 20260505051012 | 14 | 196 | 9.7 | 16.1 | 0.00 | 0.89 | 0.00 | 84 | 1000.8 |
| 20260505050216 | 13 | 196 | 11.3 | 17.7 | 0.00 | 0.89 | 0.00 | 85 | 1000.7 |
| 20260505041603 | 13 | 168 | 6.4 | 11.3 | 0.05 | 0.89 | 0.00 | 90 | 1000.1 |
| 20260505040803 | 13 | 158 | 6.4 | 11.3 | 0.08 | 0.89 | 0.00 | 89 | 999.8 |
| 20260505040006 | 13 | 166 | 8.0 | 11.3 | 0.08 | 0.89 | 0.00 | 88 | 1000.2 |
| 20260505035603 | 13 | 172 | 8.0 | 11.3 | 0.08 | 0.89 | 0.89 | 87 | 1000.2 |
| 20260505034803 | 13 | 175 | 8.0 | 11.3 | 0.08 | 0.89 | 0.89 | 86 | 1000.2 |
| 20260505034003 | 14 | 172 | 8.0 | 12.9 | 0.08 | 0.89 | 0.89 | 85 | 1000.0 |
| 20260505033412 | 14 | 188 | 6.4 | 16.1 | 0.10 | 0.89 | 0.89 | 85 | 1000.2 |
| 20260505032616 | 14 | 199 | 9.7 | 20.9 | 0.10 | 0.86 | 0.86 | 86 | 1001.0 |
| 20260505031815 | 14 | 199 | 16.1 | 32.2 | 0.13 | 0.86 | 0.86 | 86 | 1001.3 |
| 20260505030803 | 14 | 201 | 12.9 | 19.3 | 0.15 | 0.81 | 0.81 | 86 | 1001.2 |
| 20260505030003 | 14 | 201 | 11.3 | 19.3 | 0.38 | 0.81 | 0.81 | 85 | 1000.9 |
| 20260505025817 | 14 | 201 | 11.3 | 17.7 | 0.41 | 0.81 | 0.81 | 85 | 1000.8 |
| 20260505024803 | 15 | 193 | 20.9 | 35.4 | 0.56 | 0.81 | 0.81 | 81 | 1000.8 |
| 20260505024214 | 15 | 187 | 20.9 | 35.4 | 0.61 | 0.81 | 0.81 | 79 | 1000.2 |
| 20260505023413 | 15 | 190 | 14.5 | 22.5 | 0.61 | 0.79 | 0.79 | 81 | 1000.5 |
| 20260505022617 | 15 | 181 | 17.7 | 24.1 | 0.58 | 0.76 | 0.76 | 82 | 1000.6 |
| 20260505021603 | 15 | 193 | 9.7 | 19.3 | 0.58 | 0.74 | 0.74 | 86 | 1001.0 |
| 20260505020803 | 15 | 203 | 6.4 | 20.9 | 0.51 | 0.66 | 0.66 | 86 | 1001.5 |
| 20260505020213 | 15 | 234 | 1.6 | 6.4 | 0.30 | 0.46 | 0.46 | 85 | 1001.4 |
| 20260505015603 | 15 | 340 | 1.6 | 6.4 | 0.23 | 0.38 | 0.38 | 83 | 1001.2 |
| 20260505014803 | 15 | 346 | 1.6 | 6.4 | 0.10 | 0.25 | 0.25 | 81 | 1000.6 |
| 20260505014003 | 15 | 340 | 6.4 | 11.3 | 0.03 | 0.18 | 0.18 | 80 | 1000.7 |
| 20260505013203 | 15 | 341 | 4.8 | 9.7 | 0.05 | 0.18 | 0.18 | 81 | 1000.7 |
| 20260505012612 | 16 | 345 | 6.4 | 9.7 | 0.08 | 0.18 | 0.18 | 81 | 1000.4 |
| 20260505011603 | 16 | 237 | 1.6 | 6.4 | 0.15 | 0.15 | 0.15 | 79 | 1000.2 |
| 20260505011015 | 17 | 191 | 4.8 | 11.3 | 0.15 | 0.15 | 0.15 | 76 | 999.6 |
| 20260505010214 | 16 | 181 | 3.2 | 11.3 | 0.15 | 0.15 | 0.15 | 78 | 999.1 |
| 20260505005813 | 16 | 189 | 1.6 | 6.4 | 0.15 | 0.15 | 0.15 | 79 | 999.1 |
| 20260505004803 | 16 | 187 | 1.6 | 6.4 | 0.15 | 0.15 | 0.15 | 78 | 999.2 |
| 20260505004216 | 17 | 238 | 1.6 | 4.8 | 0.15 | 0.15 | 0.15 | 76 | 999.3 |
| 20260505003203 | 18 | 226 | 3.2 | 6.4 | 0.13 | 0.13 | 0.13 | 71 | 999.4 |
| 20260505002613 | 20 | 207 | 6.4 | 17.7 | 0.10 | 0.10 | 0.10 | 64 | 999.5 |
| 20260505001817 | 21 | 191 | 14.5 | 22.5 | 0.00 | 0.00 | 0.00 | 47 | 998.7 |
| 20260505000803 | 22 | 201 | 14.5 | 29.0 | 0.00 | 0.00 | 0.00 | 48 | 998.7 |
| 20260505000003 | 22 | 202 | 16.1 | 29.0 | 0.00 | 0.00 | 0.00 | 44 | 998.7 |
| 20260504235603 | 22 | 204 | 16.1 | 33.8 | 0.00 | 0.00 | 0.00 | 44 | 999.1 |
| 20260504234803 | 22 | 204 | 17.7 | 33.8 | 0.00 | 0.00 | 0.00 | 44 | 999.2 |
| 20260504234003 | 22 | 200 | 14.5 | 25.7 | 0.00 | 0.00 | 0.00 | 47 | 999.1 |
| 20260504233203 | 21 | 196 | 16.1 | 29.0 | 0.00 | 0.00 | 0.00 | 51 | 998.6 |
| 20260504232614 | 21 | 200 | 14.5 | 29.0 | 0.00 | 0.00 | 0.00 | 53 | 998.9 |
| 20260504231603 | 21 | 195 | 16.1 | 25.7 | 0.00 | 0.00 | 0.00 | 55 | 998.7 |
| 20260504230803 | 21 | 194 | 20.9 | 38.6 | 0.00 | 0.00 | 0.00 | 55 | 998.6 |
| 20260504230215 | 22 | 198 | 22.5 | 38.6 | 0.00 | 0.00 | 0.00 | 54 | 998.7 |
| 20260504225603 | 22 | 196 | 24.1 | 38.6 | 0.00 | 0.00 | 0.00 | 54 | 998.7 |
| 20260504224803 | 22 | 200 | 24.1 | 40.2 | 0.00 | 0.00 | 0.00 | 53 | 998.8 |
| 20260504224217 | 22 | 197 | 24.1 | 38.6 | 0.00 | 0.00 | 0.00 | 53 | 999.0 |
| 20260504223416 | 22 | 200 | 25.7 | 43.5 | 0.00 | 0.00 | 0.00 | 52 | 999.1 |
| 20260504222403 | 22 | 203 | 24.1 | 40.2 | 0.00 | 0.00 | 0.00 | 51 | 999.1 |
| 20260504221603 | 22 | 204 | 20.9 | 38.6 | 0.00 | 0.00 | 0.00 | 49 | 999.1 |
| 20260504220803 | 23 | 203 | 25.7 | 45.1 | 0.00 | 0.00 | 0.00 | 47 | 999.1 |
| 20260504220003 | 23 | 203 | 24.1 | 40.2 | 0.00 | 0.00 | 0.00 | 44 | 999.0 |
| 20260504215815 | 23 | 205 | 22.5 | 37.0 | 0.00 | 0.00 | 0.00 | 43 | 999.1 |
| 20260504214803 | 23 | 199 | 24.1 | 40.2 | 0.00 | 0.00 | 0.00 | 45 | 999.1 |
| 20260504214212 | 23 | 198 | 24.1 | 40.2 | 0.00 | 0.00 | 0.00 | 42 | 999.2 |
| 20260504213203 | 23 | 203 | 17.7 | 35.4 | 0.00 | 0.00 | 0.00 | 39 | 999.2 |
| 20260504212403 | 23 | 202 | 17.7 | 30.6 | 0.00 | 0.00 | 0.00 | 39 | 999.2 |
| 20260504211814 | 23 | 204 | 19.3 | 33.8 | 0.00 | 0.00 | 0.00 | 40 | 999.2 |
| 20260504210803 | 23 | 204 | 16.1 | 33.8 | 0.00 | 0.00 | 0.00 | 40 | 999.2 |
| 20260504210216 | 23 | 204 | 16.1 | 33.8 | 0.00 | 0.00 | 0.00 | 40 | 999.2 |
| 20260504205816 | 23 | 203 | 14.5 | 24.1 | 0.00 | 0.00 | 0.00 | 39 | 999.3 |
| 20260504204803 | 23 | 203 | 14.5 | 30.6 | 0.00 | 0.00 | 0.00 | 40 | 999.3 |
| 20260504204213 | 23 | 203 | 16.1 | 32.2 | 0.00 | 0.00 | 0.00 | 42 | 999.3 |
| 20260504203203 | 23 | 205 | 12.9 | 25.7 | 0.00 | 0.00 | 0.00 | 39 | 999.3 |
| 20260504202616 | 23 | 204 | 12.9 | 25.7 | 0.00 | 0.00 | 0.00 | 39 | 999.3 |
| 20260504201814 | 24 | 206 | 16.1 | 32.2 | 0.00 | 0.00 | 0.00 | 40 | 999.4 |
| 20260504201013 | 24 | 202 | 14.5 | 33.8 | 0.00 | 0.00 | 0.00 | 35 | 999.4 |
| 20260504200003 | 25 | 202 | 12.9 | 27.4 | 0.00 | 0.00 | 0.00 | 32 | 999.3 |
| 20260504195603 | 25 | 205 | 12.9 | 29.0 | 0.00 | 0.00 | 0.00 | 36 | 999.4 |
| 20260504195015 | 25 | 207 | 9.7 | 29.0 | 0.00 | 0.00 | 0.00 | 33 | 999.5 |
| 20260504194214 | 25 | 207 | 8.0 | 22.5 | 0.00 | 0.00 | 0.00 | 37 | 999.8 |
| 20260504193412 | 24 | 199 | 17.7 | 30.6 | 0.00 | 0.00 | 0.00 | 43 | 999.9 |
| 20260504192403 | 23 | 202 | 11.3 | 19.3 | 0.00 | 0.00 | 0.00 | 41 | 999.9 |
| 20260504191603 | 23 | 202 | 14.5 | 33.8 | 0.00 | 0.00 | 0.00 | 41 | 1000.1 |
| 20260504190803 | 24 | 198 | 14.5 | 30.6 | 0.00 | 0.00 | 0.00 | 37 | 1000.1 |
| 20260504190003 | 24 | 199 | 17.7 | 32.2 | 0.00 | 0.00 | 0.00 | 39 | 1000.2 |
| 20260504185817 | 24 | 201 | 16.1 | 32.2 | 0.00 | 0.00 | 0.00 | 38 | 1000.4 |
| 20260504185016 | 23 | 205 | 11.3 | 20.9 | 0.00 | 0.00 | 0.00 | 41 | 1000.5 |
| 20260504184003 | 23 | 204 | 12.9 | 25.7 | 0.00 | 0.00 | 0.00 | 42 | 1000.7 |
| 20260504183203 | 23 | 199 | 20.9 | 38.6 | 0.00 | 0.00 | 0.00 | 42 | 1000.9 |
| 20260504182403 | 23 | 204 | 12.9 | 24.1 | 0.00 | 0.00 | 0.00 | 43 | 1000.9 |
| 20260504181816 | 23 | 203 | 14.5 | 24.1 | 0.00 | 0.00 | 0.00 | 45 | 1000.9 |
| 20260504180803 | 23 | 201 | 16.1 | 33.8 | 0.00 | 0.00 | 0.00 | 45 | 1001.0 |
| 20260504180213 | 23 | 203 | 12.9 | 24.1 | 0.00 | 0.00 | 0.00 | 46 | 1001.0 |
| 20260504175812 | 23 | 202 | 12.9 | 25.7 | 0.00 | 0.00 | 0.00 | 44 | 1001.1 |
| 20260504175016 | 23 | 199 | 14.5 | 29.0 | 0.00 | 0.00 | 0.00 | 48 | 1001.1 |
| 20260504174215 | 22 | 201 | 14.5 | 29.0 | 0.00 | 0.00 | 0.00 | 46 | 1001.3 |
| 20260504173414 | 22 | 198 | 17.7 | 33.8 | 0.00 | 0.00 | 0.00 | 47 | 1001.5 |
| 20260504172612 | 22 | 199 | 16.1 | 27.4 | 0.00 | 0.00 | 0.00 | 47 | 1001.3 |
| 20260504171603 | 22 | 202 | 11.3 | 24.1 | 0.00 | 0.00 | 0.00 | 49 | 1001.6 |
| 20260504171015 | 22 | 204 | 11.3 | 22.5 | 0.00 | 0.00 | 0.00 | 47 | 1001.6 |
| 20260504170214 | 22 | 198 | 19.3 | 33.8 | 0.00 | 0.00 | 0.00 | 48 | 1002.0 |
| 20260504151016 | 18 | 198 | 11.3 | 20.9 | 0.00 | 0.00 | 0.00 | 53 | 1003.3 |
| 20260504150215 | 18 | 197 | 11.3 | 24.1 | 0.00 | 0.00 | 0.00 | 54 | 1003.4 |
| 20260504141017 | 15 | 203 | 9.7 | 16.1 | 0.00 | 0.00 | 0.00 | 64 | 1004.1 |